Location: Austin
(30.3000°N, 97.7500°W)
Time: 12:03:53
(UTC-05:00)

Cosmos 1766 Rocket - Pass Details

Date: 05 September 2024
Orbit: 602 x 628 km, 82.5° (Epoch: 10 September)

Event Time Altitude Azimuth Distance (km) Brightness Sun altitude
Exits shadow 21:44:32 64° 229° (SW) 671 3.7 -25.0°
Maximum altitude 21:45:01 72° 276° (W) 638 3.6 -25.1°
Drops below altitude 10° 21:49:20 10° 1° (N) 1,959 6.4 -25.9°
Sets 21:51:34 0° 4° (N) 2,870 7.3 -26.3°
